Weather in Shpykiv

Ukraine / Vinnytsia Region     48°47′23″N   28°33′59″E
temp.,
°C
wind,
m/s
gust,
m/s
humid.,
%
clouds,
%
prec.,
mm/h
press.,
hPa
HPBL,
m
6 may, thu
thu600:00+10sse7157836 0.0 1007511
03:00+9s612855 0.0 1006297
06:00+7ssw41095100 0.0 1007217
09:00+9nw61080100 0.1 1011701
12:00+13nw7956100 0.0 10121401
15:00+14wnw6847100 0.0 10131892
18:00+14nw464888 0.0 10132010
21:00+11sse1156100 0.0 101410
7 may, fri
fri700:00+10sse356181 0.0 1014102
03:00+9s376748 0.0 1014154
06:00+9sse4965100 0.0 1013237
09:00+11sse71379100 0.1 1013720
12:00+12s91182100 0.2 1011821
15:00+15s6979100 1.0 1009907
18:00+15sw4977100 1.9 1007555
21:00+12sw338692 2.3 100828
8 may, sat
sat800:00+11wnw4890100 0.2 1008348
03:00+9nw3993100 1.0 1010473
06:00+7nw51184100 1.7 1012583
09:00+7nw61278100 1.7 1015780
12:00+10nw8105297 0.0 10161537
15:00+12nw8104687 0.0 10162268
18:00+10nw7105540 0.0 10181982
21:00+6nw510690 0.0 1020327
9 may, sun
sun900:00+3wnw37815 0.0 1022126
03:00+3w48870 0.0 1023167
06:00+2wnw38910 0.0 1025162
09:00+9nw46670 0.0 1026658
12:00+12nw46475 0.0 10251893
15:00+14nw354140 0.0 10252286
18:00+14nw234311 0.0 10251952
21:00+9se22585 0.0 102610
10 may, mon
mon1000:00+7sse33645 0.0 102628
03:00+6se35675 0.0 102662
06:00+6se47685 0.0 1027101
09:00+12sse57595 0.0 1026429
12:00+16sse56525 0.0 10261304
15:00+18sse55490 0.0 10241577
18:00+17sse44530 0.0 10231464
21:00+12se33720 0.0 102327